Time,TemperatureF,DewpointF,PressureIn,WindDirection,WindDirectionDegrees,WindSpeedMPH,WindSpeedGustMPH,Humidity,HourlyPrecipIn,Conditions,Clouds,dailyrainin,SoftwareType,DateUTC
2013-08-26 00:24:00,75.0,60.0,-100.00,South,190,6.0,11.0,59,-99.99,,,-99.99,,2013-08-26 04:24:00,
2013-08-26 00:44:00,75.0,60.0,-100.00,South,170,6.0,9.0,59,-99.99,,,-99.99,,2013-08-26 04:44:00,
2013-08-26 00:53:00,75.0,60.0,-100.00,SSW,195,4.0,12.0,58,-99.99,,,-99.99,,2013-08-26 04:53:00,
2013-08-26 01:23:00,75.0,59.0,-100.00,South,175,6.0,10.0,58,-99.99,,,-99.99,,2013-08-26 05:23:00,
2013-08-26 01:52:00,74.0,60.0,-100.00,South,180,6.0,10.0,59,-99.99,,,-99.99,,2013-08-26 05:52:00,
2013-08-26 02:22:00,74.0,60.0,-100.00,South,185,6.0,11.0,60,-99.99,,,-99.99,,2013-08-26 06:22:00,
2013-08-26 02:52:00,74.0,60.0,-100.00,SSW,200,7.0,11.0,60,-99.99,,,-99.99,,2013-08-26 06:52:00,
2013-08-26 03:22:00,74.0,59.0,-100.00,SSW,195,6.0,10.0,60,-99.99,,,-99.99,,2013-08-26 07:22:00,
2013-08-26 03:52:00,73.0,59.0,-100.00,South,185,6.0,11.0,60,-99.99,,,-99.99,,2013-08-26 07:52:00,
2013-08-26 04:22:00,73.0,59.0,-100.00,South,170,5.0,8.0,60,-99.99,,,-99.99,,2013-08-26 08:22:00,
2013-08-26 04:52:00,73.0,59.0,-100.00,SSW,200,4.0,10.0,60,-99.99,,,-99.99,,2013-08-26 08:52:00,
2013-08-26 05:22:00,73.0,59.0,-100.00,South,185,2.0,6.0,61,-99.99,,,-99.99,,2013-08-26 09:22:00,
2013-08-26 05:53:00,73.0,59.0,-100.00,SSW,205,3.0,10.0,62,-99.99,,,-99.99,,2013-08-26 09:53:00,
2013-08-26 06:03:00,73.0,59.0,-100.00,SSW,205,3.0,10.0,62,-99.99,,,-99.99,,2013-08-26 10:03:00,
2013-08-26 06:23:00,73.0,59.0,-100.00,South,185,4.0,10.0,62,-99.99,,,-99.99,,2013-08-26 10:23:00,
2013-08-26 06:52:00,73.0,60.0,-100.00,SSW,195,6.0,11.0,62,-99.99,,,-99.99,,2013-08-26 10:52:00,
2013-08-26 07:22:00,73.0,60.0,-100.00,South,185,5.0,9.0,62,-99.99,,,-99.99,,2013-08-26 11:22:00,
2013-08-26 07:52:00,74.0,60.0,-100.00,SSE,165,2.0,7.0,62,-99.99,,,-99.99,,2013-08-26 11:52:00,
2013-08-26 08:22:00,74.0,61.0,-100.00,South,170,2.0,7.0,62,-99.99,,,-99.99,,2013-08-26 12:22:00,
2013-08-26 08:52:00,75.0,61.0,-100.00,SSW,195,3.0,10.0,62,-99.99,,,-99.99,,2013-08-26 12:52:00,
2013-08-26 09:22:00,75.0,62.0,-100.00,WSW,255,2.0,7.0,62,-99.99,,,-99.99,,2013-08-26 13:22:00,
2013-08-26 09:52:00,77.0,63.0,-100.00,SW,235,4.0,12.0,60,-99.99,,,-99.99,,2013-08-26 13:52:00,
2013-08-26 10:22:00,79.0,63.0,-100.00,SW,225,5.0,11.0,57,-99.99,,,-99.99,,2013-08-26 14:22:00,
2013-08-26 10:52:00,80.0,63.0,-100.00,SW,220,6.0,11.0,55,-99.99,,,-99.99,,2013-08-26 14:52:00,
2013-08-26 11:12:00,81.0,62.0,-100.00,SW,225,6.0,16.0,53,-99.99,,,-99.99,,2013-08-26 15:12:00,
2013-08-26 11:22:00,81.0,63.0,-100.00,SW,225,6.0,11.0,53,-99.99,,,-99.99,,2013-08-26 15:22:00,
2013-08-26 11:59:00,82.0,63.0,-100.00,SW,230,6.0,11.0,52,-99.99,,,-99.99,,2013-08-26 15:59:00,
2013-08-26 12:29:00,83.0,64.0,-100.00,West,260,5.0,13.0,51,-99.99,,,-99.99,,2013-08-26 16:29:00,
2013-08-26 12:59:00,83.0,63.0,-100.00,SW,225,6.0,12.0,52,-99.99,,,-99.99,,2013-08-26 16:59:00,
2013-08-26 13:24:00,82.0,65.0,-100.00,SW,235,6.0,11.0,55,-99.99,,,-99.99,,2013-08-26 17:24:00,
2013-08-26 13:53:00,82.0,66.0,-100.00,SSW,195,6.0,12.0,57,-99.99,,,-99.99,,2013-08-26 17:53:00,
2013-08-26 14:22:00,82.0,67.0,-100.00,WSW,240,6.0,12.0,61,-99.99,,,-99.99,,2013-08-26 18:22:00,
2013-08-26 14:52:00,85.0,65.0,-100.00,SW,220,7.0,12.0,51,-99.99,,,-99.99,,2013-08-26 18:52:00,
2013-08-26 15:22:00,88.0,66.0,-100.00,South,185,4.0,16.0,47,-99.99,,,-99.99,,2013-08-26 19:22:00,
2013-08-26 15:52:00,87.0,64.0,-100.00,SW,220,3.0,14.0,46,-99.99,,,-99.99,,2013-08-26 19:52:00,
2013-08-26 16:22:00,87.0,65.0,-100.00,SW,225,5.0,11.0,48,-99.99,,,-99.99,,2013-08-26 20:22:00,
2013-08-26 16:52:00,88.0,64.0,-100.00,SW,230,7.0,13.0,45,-99.99,,,-99.99,,2013-08-26 20:52:00,
2013-08-26 17:22:00,88.0,65.0,-100.00,SW,220,7.0,12.0,46,-99.99,,,-99.99,,2013-08-26 21:22:00,
2013-08-26 17:55:00,87.0,65.0,-100.00,SW,230,6.0,11.0,48,-99.99,,,-99.99,,2013-08-26 21:55:00,
2013-08-26 18:26:00,86.0,64.0,-100.00,WSW,250,8.0,17.0,47,-99.99,,,-99.99,,2013-08-26 22:26:00,
2013-08-26 18:42:00,86.0,65.0,-100.00,SW,220,6.0,14.0,48,-99.99,,,-99.99,,2013-08-26 22:42:00,
2013-08-26 18:53:00,85.0,64.0,-100.00,WSW,240,9.0,15.0,48,-99.99,,,-99.99,,2013-08-26 22:53:00,
2013-08-26 19:03:00,85.0,64.0,-100.00,WSW,240,9.0,15.0,48,-99.99,,,-99.99,,2013-08-26 23:03:00,
2013-08-26 19:22:00,85.0,64.0,-100.00,SW,215,6.0,14.0,50,-99.99,,,-99.99,,2013-08-26 23:22:00,
2013-08-26 19:52:00,84.0,66.0,-100.00,SW,225,5.0,12.0,55,-99.99,,,-99.99,,2013-08-26 23:52:00,
2013-08-26 20:21:00,83.0,67.0,-100.00,SW,230,9.0,13.0,57,-99.99,,,-99.99,,2013-08-27 00:21:00,
2013-08-26 20:52:00,83.0,67.0,-100.00,SW,220,7.0,12.0,59,-99.99,,,-99.99,,2013-08-27 00:52:00,
2013-08-26 21:22:00,83.0,67.0,-100.00,SSW,195,7.0,14.0,58,-99.99,,,-99.99,,2013-08-27 01:22:00,
2013-08-26 21:52:00,82.0,67.0,-100.00,SW,215,6.0,14.0,59,-99.99,,,-99.99,,2013-08-27 01:52:00,
2013-08-26 22:21:00,82.0,67.0,-100.00,SW,230,5.0,12.0,60,-99.99,,,-99.99,,2013-08-27 02:21:00,
2013-08-26 22:52:00,82.0,68.0,-100.00,SW,215,8.0,12.0,63,-99.99,,,-99.99,,2013-08-27 02:52:00,
2013-08-26 23:22:00,81.0,68.0,-100.00,SSW,205,8.0,14.0,64,-99.99,,,-99.99,,2013-08-27 03:22:00,
2013-08-26 23:58:00,81.0,69.0,-100.00,SW,225,4.0,11.0,66,-99.99,,,-99.99,,2013-08-27 03:58:00,